Flag for Ireland Weather past 2 weeks in Galway, Ireland

Now
46 °F

Scattered clouds.


Feels Like: 42 °F
Forecast: 52 / 61 °F
Wind: 8 mph from Southeast

Location: Shannon Airport

Current Time: Oct 2, 2014 at 9:46:28 AM

Latest Report: Oct 2, 2014 at 9:00 AM


Visibility: N/A

Pressure: 30.33 "Hg

Humidity: 87%

Dew point: 43 °F

Location of GalwayLocation

Historic Weather in Galway — Graph

°F

Galway temperature yesterday

Maximum temperature yesterday: 61 °F (at 3:00 PM)
Minimum temperature yesterday: 45 °F (at 11:00 PM)
Average temperature yesterday: 55 °F

Past Weeks' High & Low Weather Summary

 TemperatureHumidityPressure
High72 °F (Sep 17, 4:30 PM)100% (Sep 19, 8:30 AM)30.42 "Hg (Sep 19, 8:30 AM)
Low43 °F (Sep 21, 7:00 AM)36% (Oct 1, 3:00 PM)29.77 "Hg (Sep 18, 2:00 PM)
Average59 °F80%30.11 "Hg
* Reported Sep 17 9:00 AM — Oct 2 9:00 AM, Galway, Weather by CustomWeather, © 2014

Note: Actual official high and low records may vary slightly from our data, if they occured in-between our weather recording intervals... More about our weather records

Advertising

Galway weather history for previous 24 hours

 ConditionsComfort  
Time TempWeatherWind HumidityBarometerVisibility
9:00 AM
Oct 2
46 °FScattered clouds.8 mph87%30.33 "HgN/A
8:30 AM45 °FPassing clouds.7 mph87%30.36 "HgN/A
8:00 AM45 °FPassing clouds.5 mph87%30.36 "HgN/A
7:30 AM45 °FPassing clouds.7 mph87%30.36 "HgN/A
7:00 AM45 °FPassing clouds.8 mph87%30.36 "HgN/A
6:30 AM45 °FPassing clouds.7 mph87%30.36 "HgN/A
6:00 AM45 °FPassing clouds.7 mph87%30.39 "HgN/A
5:30 AM45 °FPassing clouds.5 mph87%30.39 "HgN/A
5:00 AM45 °FPassing clouds.6 mph87%30.39 "HgN/A
4:30 AM45 °FPassing clouds.6 mph93%30.39 "HgN/A
4:00 AM46 °FPassing clouds.No wind87%30.39 "HgN/A
3:30 AM46 °FPassing clouds.7 mph87%30.39 "HgN/A
3:00 AM46 °FPassing clouds.7 mph87%30.42 "HgN/A
2:30 AM46 °FPassing clouds.8 mph87%30.42 "HgN/A
2:00 AM46 °FPassing clouds.9 mph87%30.42 "HgN/A
1:30 AM48 °FPassing clouds.3 mph87%30.42 "HgN/A
1:00 AM48 °FPassing clouds.No wind87%30.42 "HgN/A
12:30 AM48 °FPassing clouds.3 mph87%30.42 "HgN/A
12:00 AM48 °FPassing clouds.No wind87%30.42 "HgN/A
11:30 PM
Oct 1
46 °FPassing clouds.2 mph87%30.42 "HgN/A
11:00 PM45 °FPassing clouds.2 mph87%30.42 "HgN/A
10:30 PM46 °FPassing clouds.No wind87%30.42 "HgN/A
10:00 PM48 °FPassing clouds.No wind87%30.42 "HgN/A
9:30 PM48 °FPassing clouds.1 mph87%30.42 "HgN/A
9:00 PM48 °FPassing clouds.1 mph87%30.42 "HgN/A
8:30 PM50 °FPassing clouds.1 mph82%30.42 "HgN/A
8:00 PM50 °FPassing clouds.1 mph71%30.39 "HgN/A
7:30 PM52 °FPassing clouds.3 mph62%30.39 "HgN/A
7:00 PM55 °FPassing clouds.5 mph55%30.39 "HgN/A
6:30 PM57 °FScattered clouds.6 mph48%30.39 "HgN/A
6:00 PM55 °FScattered clouds.7 mph51%30.39 "HgN/A
5:30 PM57 °FScattered clouds.10 mph44%30.36 "HgN/A
5:00 PM59 °FScattered clouds.8 mph45%30.36 "HgN/A
4:30 PM61 °FScattered clouds.8 mph42%30.36 "HgN/A
4:00 PM61 °FScattered clouds.10 mph39%30.33 "HgN/A
3:30 PM61 °FPartly sunny.7 mph39%30.33 "HgN/A
3:00 PM61 °FScattered clouds.7 mph36%30.33 "HgN/A
2:30 PM59 °FScattered clouds.10 mph42%30.33 "HgN/A
2:00 PM59 °FScattered clouds.12 mph45%30.33 "HgN/A
1:30 PM59 °FBroken clouds.13 mph42%30.33 "HgN/A
1:00 PM59 °FBroken clouds.12 mph51%30.30 "HgN/A
12:30 PM59 °FBroken clouds.8 mph51%30.30 "HgN/A
12:00 PM57 °FBroken clouds.9 mph63%30.30 "HgN/A
11:30 AM55 °FBroken clouds.6 mph82%30.27 "HgN/A
11:00 AM57 °FPartly sunny.8 mph72%30.27 "HgN/A
10:30 AM57 °FPartly sunny.5 mph82%30.27 "HgN/A
10:00 AM55 °FBroken clouds.5 mph88%30.24 "HgN/A
9:30 AM55 °FBroken clouds.5 mph88%30.24 "HgN/A
9:00 AM54 °FBroken clouds.No wind94%30.21 "HgN/A
Weather by CustomWeather, © 2014

See weather overviewHow to use our weather pages